Crane Lake, MN

4:40 PM CDT on June 23, 2017 (GMT -0500)
Crane Lake

Weather History for KCDD - March, 2014

Change the Weather History Date:

Saturday, March 22, 2014

  Actual Average Record
Temperature  
Mean Temperature 4 °F -  
Max Temperature 17 °F 35 °F 64 °F (2012)
Min Temperature -9 °F 14 °F -9 °F (2013)
Degree Days  
Heating Degree Days 61    
Moisture  
Dew Point -4 °F    
Average Humidity 72    
Maximum Humidity 92    
Minimum Humidity 49    
Precipitation  
Precipitation 0.00 in - - ()
Sea Level Pressure  
Sea Level Pressure 30.33 in    
Wind  
Wind Speed 5 mph (NW)    
Max Wind Speed 10 mph    
Max Gust Speed 20 mph    
Visibility 10 miles    
Events      
Averages and records for this station are not official NWS values.
T = Trace of Precipitation, MM = Missing Value Source: NWS Daily Summary

Daily Weather History Graph

Daily Weather History Graph

Search for Another Location

Airport or City:

Trip Planner

Search our weather history database for the weather conditions in past years. The results will help you decide how hot, cold, wet, or windy it might be!

Date:

Astronomy

Mar. 22, 2014 Rise Set
Actual Time 7:08 AM CDT 7:25 PM CDT
Civil Twilight 6:37 AM CDT 7:56 PM CDT
Nautical Twilight 6:00 AM CDT 8:33 PM CDT
Astronomical Twilight 5:22 AM CDT 9:12 PM CDT
Moon 1:07 AM CDT (3/22) 10:29 AM CDT (3/22)
Length of Visible Light 13h 19m
Length of Day
12h 17m
Waning Gibbous, 65% of the Moon is Illuminated
Mar 22
Waning Gibbous
Mar 23
Last Quarter
Mar 30
New
Apr 7
First Quarter
Apr 15
Full

Hourly Weather History & Observations

Time (CDT) Temp. Windchill Dew Point Humidity Pressure Visibility Wind Dir Wind Speed Gust Speed Precip Events Conditions
12:09 AM 10.4 °F 0.8 °F 6.8 °F 85% 30.16 in 10.0 mi NW 5.8 mph - N/A   Overcast
12:28 AM 8.6 °F -2.6 °F 6.8 °F 92% 30.16 in 10.0 mi WNW 6.9 mph - N/A   Overcast
12:48 AM 8.6 °F -2.6 °F 3.2 °F 79% 30.17 in 10.0 mi NNW 6.9 mph - N/A   Overcast
1:08 AM 6.8 °F -5.9 °F 3.2 °F 85% 30.18 in 10.0 mi NW 8.1 mph - N/A   Mostly Cloudy
1:28 AM 5.0 °F -2.1 °F 1.4 °F 85% 30.18 in 10.0 mi NW 3.5 mph - N/A   Scattered Clouds
1:49 AM 3.2 °F -7.8 °F 1.4 °F 92% 30.19 in 10.0 mi NNW 5.8 mph - N/A   Clear
2:09 AM 3.2 °F -6.2 °F -0.4 °F 85% 30.20 in 10.0 mi NW 4.6 mph - N/A   Clear
2:28 AM 3.2 °F - -0.4 °F 85% 30.21 in 10.0 mi Calm Calm - N/A   Clear
2:48 AM 1.4 °F -9.9 °F -2.2 °F 85% 30.21 in 10.0 mi NW 5.8 mph - N/A   Clear
3:08 AM 1.4 °F -9.9 °F -2.2 °F 85% 30.21 in 10.0 mi NW 5.8 mph - N/A   Clear
3:28 AM 1.4 °F -11.3 °F -2.2 °F 85% 30.22 in 10.0 mi NW 6.9 mph - N/A   Clear
3:48 AM -0.4 °F -13.4 °F -2.2 °F 92% 30.22 in 10.0 mi NW 6.9 mph - N/A   Clear
4:08 AM -0.4 °F -12.0 °F -4.0 °F 85% 30.23 in 10.0 mi NW 5.8 mph - N/A   Clear
4:29 AM -0.4 °F -12.0 °F -5.8 °F 78% 30.24 in 10.0 mi NW 5.8 mph - N/A   Clear
4:49 AM -2.2 °F -12.5 °F -5.8 °F 85% 30.24 in 10.0 mi NNW 4.6 mph - N/A   Clear
5:08 AM -2.2 °F -12.5 °F -5.8 °F 85% 30.25 in 10.0 mi NNW 4.6 mph - N/A   Clear
5:29 AM -2.2 °F -10.4 °F -5.8 °F 85% 30.26 in 10.0 mi NNW 3.5 mph - N/A   Clear
5:48 AM -2.2 °F -10.4 °F -7.6 °F 78% 30.27 in 10.0 mi NW 3.5 mph - N/A   Clear
6:09 AM -4.0 °F -12.4 °F -7.6 °F 85% 30.28 in 10.0 mi NNW 3.5 mph - N/A   Clear
6:29 AM -5.8 °F -14.5 °F -7.6 °F 92% 30.28 in 10.0 mi NNW 3.5 mph - N/A   Clear
6:49 AM -5.8 °F - -9.4 °F 84% 30.30 in 10.0 mi Calm Calm - N/A   Clear
7:09 AM -5.8 °F -14.5 °F -9.4 °F 84% 30.30 in 10.0 mi NW 3.5 mph - N/A   Clear
7:28 AM -7.6 °F -16.5 °F -9.4 °F 92% 30.31 in 10.0 mi NNW 3.5 mph - N/A   Clear
7:48 AM -5.8 °F -16.7 °F -9.4 °F 84% 30.32 in 10.0 mi NW 4.6 mph - N/A   Clear
8:08 AM -5.8 °F -14.5 °F -9.4 °F 84% 30.33 in 10.0 mi NW 3.5 mph - N/A   Clear
8:28 AM -4.0 °F -14.6 °F -7.6 °F 85% 30.34 in 10.0 mi NNW 4.6 mph - N/A   Clear
8:48 AM -4.0 °F -12.4 °F -7.6 °F 85% 30.34 in 10.0 mi NNW 3.5 mph - N/A   Clear
9:08 AM -0.4 °F -10.4 °F -4.0 °F 85% 30.35 in 10.0 mi NW 4.6 mph - N/A   Clear
9:28 AM 1.4 °F -9.9 °F -2.2 °F 85% 30.35 in 10.0 mi NNW 5.8 mph - N/A   Clear
9:48 AM 3.2 °F -7.8 °F -2.2 °F 78% 30.36 in 10.0 mi NNW 5.8 mph - N/A   Clear
10:08 AM 3.2 °F -7.8 °F -0.4 °F 85% 30.36 in 10.0 mi NW 5.8 mph - N/A   Clear
10:28 AM 6.8 °F -0.1 °F -0.4 °F 72% 30.37 in 10.0 mi WNW 3.5 mph - N/A   Clear
10:48 AM 6.8 °F -4.8 °F 1.4 °F 79% 30.37 in 10.0 mi NW 6.9 mph - N/A   Clear
11:08 AM 8.6 °F 0.1 °F -0.4 °F 67% 30.37 in 10.0 mi NW 4.6 mph 16.1 mph N/A   Scattered Clouds
11:28 AM 8.6 °F -3.7 °F -0.4 °F 67% 30.37 in 10.0 mi West 8.1 mph - N/A   Scattered Clouds
11:48 AM 8.6 °F -3.7 °F -0.4 °F 67% 30.38 in 7.0 mi NW 8.1 mph 17.3 mph N/A   Overcast
12:08 PM 8.6 °F -4.7 °F -0.4 °F 67% 30.38 in 7.0 mi NW 9.2 mph 19.6 mph N/A   Overcast
12:28 PM 10.4 °F -3.3 °F -0.4 °F 62% 30.38 in 5.0 mi NW 10.4 mph - N/A   Haze
12:48 PM 8.6 °F -1.3 °F -0.4 °F 67% 30.38 in 5.0 mi NW 5.8 mph 17.3 mph N/A   Haze
1:09 PM 12.2 °F 1.7 °F 3.2 °F 67% 30.38 in 5.0 mi NW 6.9 mph - N/A   Haze
1:28 PM 10.4 °F -0.4 °F -0.4 °F 62% 30.38 in 10.0 mi West 6.9 mph - N/A   Overcast
1:48 PM 10.4 °F -0.4 °F 1.4 °F 67% 30.38 in 10.0 mi NW 6.9 mph - N/A   Mostly Cloudy
2:08 PM 12.2 °F 1.7 °F 1.4 °F 62% 30.38 in 10.0 mi NW 6.9 mph - N/A   Mostly Cloudy
2:28 PM 12.2 °F -0.2 °F 1.4 °F 62% 30.37 in 10.0 mi NW 9.2 mph - N/A   Mostly Cloudy
2:49 PM 14.0 °F 1.2 °F 1.4 °F 57% 30.37 in 10.0 mi NNW 10.4 mph 17.3 mph N/A   Mostly Cloudy
3:09 PM 12.2 °F 4.3 °F 1.4 °F 62% 30.37 in 10.0 mi WNW 4.6 mph - N/A   Scattered Clouds
3:29 PM 12.2 °F 1.7 °F -0.4 °F 57% 30.37 in 10.0 mi NW 6.9 mph 17.3 mph N/A   Scattered Clouds
3:48 PM 15.8 °F 4.2 °F 3.2 °F 58% 30.37 in 10.0 mi NW 9.2 mph - N/A   Mostly Cloudy
4:08 PM 14.0 °F 5.1 °F -0.4 °F 53% 30.37 in 10.0 mi NW 5.8 mph - N/A   Scattered Clouds
4:28 PM 17.6 °F 6.4 °F 1.4 °F 49% 30.37 in 10.0 mi West 9.2 mph - N/A   Scattered Clouds
4:48 PM 17.6 °F 9.3 °F 1.4 °F 49% 30.37 in 10.0 mi WNW 5.8 mph - N/A   Mostly Cloudy
5:08 PM 15.8 °F 6.1 °F -0.4 °F 49% 30.37 in 10.0 mi West 6.9 mph 19.6 mph N/A   Scattered Clouds
5:28 PM 15.8 °F 7.2 °F -0.4 °F 49% 30.37 in 10.0 mi NNW 5.8 mph - N/A   Clear
5:48 PM 15.8 °F 6.1 °F -0.4 °F 49% 30.37 in 10.0 mi NW 6.9 mph 16.1 mph N/A   Clear
6:09 PM 14.0 °F 2.0 °F -0.4 °F 53% 30.37 in 10.0 mi NNW 9.2 mph - N/A   Clear
6:28 PM 12.2 °F 0.7 °F -2.2 °F 53% 30.37 in 10.0 mi NW 8.1 mph - N/A   Clear
6:48 PM 12.2 °F 6.1 °F -2.2 °F 53% 30.37 in 10.0 mi WNW 3.5 mph - N/A   Clear
7:09 PM 8.6 °F - -5.8 °F 52% 30.37 in 10.0 mi Calm Calm - N/A   Clear
7:29 PM 6.8 °F - -5.8 °F 56% 30.38 in 10.0 mi Calm Calm - N/A   Clear
7:48 PM 5.0 °F - -7.6 °F 56% 30.38 in 10.0 mi Calm Calm - N/A   Clear
8:08 PM 1.4 °F - -11.2 °F 56% 30.39 in 10.0 mi Calm Calm - N/A   Clear
8:28 PM -2.2 °F - -13.0 °F 60% 30.39 in 10.0 mi Calm Calm - N/A   Clear
8:48 PM -5.8 °F - -14.8 °F 65% 30.39 in 10.0 mi Calm Calm - N/A   Clear
9:09 PM -5.8 °F - -14.8 °F 65% 30.39 in 10.0 mi Calm Calm - N/A   Clear
9:28 PM -7.6 °F - -16.6 °F 65% 30.39 in 10.0 mi Calm Calm - N/A   Clear
9:49 PM -9.4 °F - -16.6 °F 71% 30.40 in 10.0 mi Calm Calm - N/A   Clear
10:08 PM -7.6 °F - -11.2 °F 84% 30.40 in 10.0 mi Calm Calm - N/A   Clear
10:29 PM -2.2 °F - -9.4 °F 71% 30.40 in 10.0 mi Calm Calm - N/A   Clear
10:48 PM -2.2 °F - -7.6 °F 78% 30.40 in 10.0 mi Calm Calm - N/A   Clear
11:08 PM -0.4 °F - -7.6 °F 72% 30.40 in 10.0 mi Calm Calm - N/A   Clear
11:28 PM 1.4 °F - -5.8 °F 72% 30.41 in 10.0 mi Calm Calm - N/A   Clear
11:48 PM -0.4 °F - -7.6 °F 72% 30.42 in 10.0 mi Calm Calm - N/A   Clear